QPF
0.00 0.00 0.00 0.00 0.00 0.00 0.00 0.00 0.00 0.00 0.00 0.00 0.00 0.00 0.00 0.00 0.01 0.02 0.02 0.01 0.01 0.01 0.02 0.04 0.05 0.07 0.10 0.10 0.08 0.06 0.05 0.04 0.02 0.01 0.00 0.00 0.02 0.04 0.04 0.04 0.05 0.04 0.02
0.00 0.00 0.00 0.00 0.00 0.00 0.00 0.00 0.00 0.00 0.00 0.00 0.00 0.00 0.00 0.00 0.02 0.04 0.04 0.03 0.02 0.02 0.03 0.05 0.08 0.11 0.12 0.13 0.12 0.10 0.07 0.06 0.05 0.02 0.01 0.01 0.02 0.04 0.05 0.06 0.07 0.06 0.03
0.00 0.00 0.00 0.00 0.00 0.00 0.00 0.00 0.00 0.00 0.00 0.00 0.00 0.00 0.00 0.00 0.01 0.02 0.07 0.06 0.03 0.02 0.03 0.07 0.09 0.10 0.09 0.08 0.08 0.08 0.06 0.05 0.05 0.04 0.02 0.02 0.03 0.06 0.08 0.09 0.10 0.10 0.08
0.00 0.00 0.00 0.00 0.00 0.00 0.00 0.00 0.00 0.00 0.00 0.00 0.00 0.00 0.00 0.00 0.01 0.04 0.12 0.07 0.02 0.01 0.03 0.06 0.09 0.10 0.10 0.09 0.06 0.04 0.04 0.03 0.03 0.03 0.03 0.04 0.04 0.07 0.10 0.10 0.09 0.11 0.10
0.00 0.00 0.00 0.00 0.00 0.00 0.00 0.00 0.00 0.00 0.00 0.00 0.00 0.00 0.00 0.00 0.01 0.08 0.18 0.07 0.01 0.01 0.03 0.05 0.09 0.13 0.14 0.16 0.12 0.06 0.04 0.03 0.03 0.03 0.05 0.07 0.07 0.09 0.12 0.13 0.12 0.12 0.12
0.00 0.00 0.00 0.00 0.00 0.00 0.00 0.00 0.00 0.00 0.00 0.00 0.00 0.00 0.00 0.00 0.01 0.10 0.17 0.04 0.01 0.03 0.05 0.05 0.07 0.11 0.12 0.13 0.13 0.10 0.09 0.09 0.08 0.08 0.10 0.11 0.11 0.11 0.15 0.19 0.19 0.15 0.15
0.00 0.00 0.00 0.00 0.00 0.00 0.00 0.00 0.00 0.00 0.00 0.00 0.00 0.00 0.00 0.00 0.02 0.15 0.15 0.03 0.03 0.06 0.08 0.06 0.05 0.09 0.10 0.11 0.11 0.08 0.10 0.14 0.18 0.20 0.21 0.19 0.17 0.18 0.22 0.24 0.24 0.16 0.15
0.00 0.00 0.00 0.00 0.00 0.00 0.00 0.00 0.00 0.00 0.00 0.00 0.00 0.00 0.00 0.00 0.04 0.18 0.12 0.02 0.04 0.08 0.10 0.05 0.03 0.06 0.09 0.09 0.10 0.09 0.11 0.18 0.26 0.31 0.33 0.30 0.27 0.29 0.33 0.37 0.37 0.26 0.18
0.00 0.00 0.00 0.00 0.00 0.00 0.00 0.00 0.00 0.00 0.00 0.00 0.00 0.00 0.00 0.00 0.04 0.17 0.09 0.02 0.04 0.08 0.08 0.05 0.02 0.02 0.04 0.03 0.04 0.06 0.08 0.13 0.21 0.26 0.26 0.23 0.23 0.31 0.44 0.54 0.56 0.42 0.29
0.00 0.00 0.00 0.00 0.00 0.00 0.00 0.00 0.00 0.00 0.00 0.00 0.00 0.00 0.00 0.00 0.03 0.12 0.08 0.02 0.03 0.05 0.06 0.03 0.03 0.02 0.01 0.01 0.01 0.02 0.04 0.08 0.12 0.16 0.18 0.19 0.21 0.28 0.40 0.56 0.71 0.62 0.42
0.00 0.00 0.00 0.00 0.00 0.00 0.00 0.00 0.00 0.00 0.00 0.00 0.00 0.00 0.00 0.00 0.01 0.06 0.07 0.03 0.02 0.03 0.03 0.03 0.02 0.01 0.01 0.00 0.00 0.00 0.02 0.03 0.05 0.08 0.12 0.15 0.19 0.26 0.38 0.51 0.65 0.70 0.55
0.00 0.00 0.00 0.00 0.00 0.00 0.00 0.00 0.00 0.00 0.00 0.01 0.01 0.01 0.00 0.00 0.01 0.04 0.04 0.04 0.03 0.02 0.03 0.01 0.00 0.00 0.00 0.00 0.00 0.00 0.00 0.00 0.01 0.03 0.05 0.08 0.13 0.19 0.29 0.42 0.56 0.67 0.66
0.00 0.00 0.00 0.00 0.00 0.00 0.00 0.00 0.00 0.01 0.01 0.02 0.02 0.02 0.01 0.01 0.02 0.03 0.02 0.02 0.02 0.02 0.02 0.01 0.00 0.00 0.00 0.00 0.00 0.00 0.00 0.00 0.00 0.00 0.02 0.03 0.06 0.10 0.15 0.23 0.33 0.45 0.50
0.00 0.00 0.00 0.00 0.00 0.00 0.00 0.00 0.01 0.02 0.05 0.03 0.02 0.02 0.01 0.02 0.04 0.02 0.01 0.00 0.01 0.00 0.00 0.00 0.00 0.00 0.00 0.00 0.00 0.00 0.00 0.00 0.00 0.00 0.00 0.01 0.01 0.03 0.06 0.10 0.15 0.22 0.28
0.00 0.00 0.00 0.00 0.00 0.00 0.00 0.00 0.01 0.03 0.06 0.04 0.02 0.03 0.03 0.05 0.06 0.02 0.01 0.01 0.01 0.00 0.00 0.00 0.00 0.00 0.00 0.00 0.00 0.00 0.00 0.00 0.00 0.00 0.00 0.00 0.00 0.01 0.01 0.03 0.06 0.10 0.14
0.00 0.00 0.00 0.00 0.00 0.00 0.00 0.00 0.01 0.02 0.03 0.02 0.02 0.04 0.04 0.06 0.04 0.00 0.00 0.01 0.01 0.00 0.00 0.00 0.00 0.00 0.00 0.00 0.00 0.00 0.00 0.00 0.00 0.00 0.00 0.00 0.00 0.00 0.00 0.01 0.01 0.03 0.05
0.00 0.00 0.00 0.00 0.00 0.00 0.00 0.00 0.00 0.01 0.01 0.01 0.01 0.02 0.03 0.04 0.02 0.00 0.00 0.00 0.00 0.00 0.00 0.00 0.00 0.00 0.00 0.00 0.00 0.00 0.00 0.00 0.00 0.00 0.00 0.00 0.00 0.00 0.00 0.00 0.00 0.01 0.01
0.00 0.00 0.00 0.00 0.00 0.00 0.00 0.00 0.00 0.01 0.01 0.00 0.00 0.00 0.01 0.02 0.01 0.00 0.00 0.00 0.00 0.00 0.00 0.00 0.00 0.00 0.00 0.00 0.00 0.00 0.00 0.00 0.00 0.00 0.00 0.00 0.00 0.00 0.00 0.00 0.00 0.00 0.00
0.00 0.00 0.00 0.00 0.00 0.00 0.00 0.00 0.00 0.00 0.00 0.00 0.00 0.00 0.01 0.00 0.00 0.00 0.00 0.00 0.00 0.00 0.00 0.00 0.00 0.00 0.00 0.00 0.00 0.00 0.00 0.00 0.00 0.00 0.00 0.00 0.00 0.00 0.00 0.00 0.00 0.00 0.00
0.00 0.00 0.00 0.00 0.00 0.00 0.00 0.00 0.00 0.00 0.00 0.00 0.00 0.00 0.01 0.01 0.00 0.00 0.00 0.00 0.00 0.00 0.00 0.00 0.00 0.00 0.00 0.00 0.00 0.00 0.00 0.00 0.00 0.00 0.00 0.00 0.00 0.00 0.00 0.00 0.00 0.00 0.00
0.00 0.00 0.00 0.00 0.00 0.00 0.00 0.00 0.00 0.00 0.00 0.00 0.00 0.00 0.01 0.00 0.00 0.00 0.00 0.00 0.00 0.00 0.00 0.00 0.00 0.00 0.00 0.00 0.00 0.00 0.00 0.00 0.00 0.00 0.00 0.00 0.00 0.00 0.00 0.00 0.00 0.00 0.00
0.00 0.00 0.00 0.00 0.00 0.00 0.00 0.00 0.00 0.00 0.00 0.00 0.00 0.00 0.00 0.00 0.00 0.00 0.00 0.00 0.00 0.00 0.00 0.00 0.00 0.00 0.00 0.00 0.00 0.00 0.00 0.00 0.00 0.00 0.00 0.00 0.00 0.00 0.00 0.00 0.00 0.00 0.00
0.00 0.00 0.00 0.00 0.00 0.00 0.00 0.00 0.00 0.00 0.00 0.00 0.00 0.00 0.00 0.00 0.00 0.00 0.00 0.00 0.00 0.00 0.00 0.00 0.00 0.00 0.00 0.00 0.00 0.00 0.00 0.00 0.00 0.00 0.00 0.00 0.00 0.00 0.00 0.00 0.00 0.00 0.00
0.00 0.00 0.00 0.00 0.00 0.00 0.00 0.00 0.00 0.00 0.01 0.01 0.01 0.01 0.01 0.01 0.00 0.00 0.00 0.00 0.00 0.00 0.00 0.00 0.00 0.00 0.00 0.00 0.00 0.00 0.00 0.00 0.00 0.00 0.00 0.01 0.01 0.00 0.00 0.00 0.00 0.00 0.00
0.00 0.00 0.00 0.00 0.00 0.00 0.00 0.00 0.00 0.01 0.01 0.02 0.02 0.02 0.02 0.02 0.02 0.01 0.01 0.01 0.00 0.00 0.00 0.00 0.00 0.00 0.00 0.00 0.00 0.00 0.00 0.00 0.01 0.02 0.02 0.01 0.01 0.01 0.00 0.00 0.00 0.00 0.00
0.00 0.00 0.00 0.00 0.00 0.00 0.01 0.01 0.01 0.02 0.02 0.03 0.03 0.03 0.04 0.04 0.03 0.03 0.03 0.03 0.02 0.01 0.01 0.00 0.00 0.00 0.00 0.00 0.00 0.00 0.00 0.00 0.01 0.01 0.02 0.02 0.01 0.01 0.01 0.01 0.00 0.00 0.00
MSLP
1033.89 1033.53 1033.10 1032.61 1032.06 1031.44 1030.79 1030.13 1029.46 1028.79 1028.13 1027.45 1026.73 1025.95 1025.10 1024.16 1023.15 1022.09 1021.02 1019.97 1018.99 1018.09 1017.27 1016.52 1015.80 1015.08 1014.31 1013.45 1012.51 1011.50 1010.45 1009.41 1008.45 1007.62 1006.97 1006.52 1006.27 1006.20 1006.26 1006.42 1006.62 1006.82 1007.02
1033.96 1033.59 1033.15 1032.65 1032.08 1031.45 1030.78 1030.09 1029.39 1028.70 1028.00 1027.28 1026.53 1025.71 1024.82 1023.85 1022.81 1021.71 1020.61 1019.52 1018.48 1017.52 1016.64 1015.82 1015.03 1014.25 1013.43 1012.57 1011.64 1010.68 1009.70 1008.77 1007.91 1007.19 1006.64 1006.27 1006.06 1006.01 1006.07 1006.19 1006.35 1006.51 1006.66
1033.98 1033.59 1033.14 1032.63 1032.05 1031.41 1030.73 1030.01 1029.29 1028.55 1027.81 1027.04 1026.24 1025.38 1024.45 1023.46 1022.40 1021.30 1020.19 1019.10 1018.05 1017.07 1016.15 1015.29 1014.46 1013.63 1012.80 1011.93 1011.03 1010.11 1009.21 1008.36 1007.60 1006.97 1006.48 1006.15 1005.97 1005.90 1005.92 1005.99 1006.09 1006.19 1006.30
1033.92 1033.52 1033.08 1032.56 1031.99 1031.35 1030.66 1029.93 1029.17 1028.39 1027.60 1026.78 1025.92 1025.01 1024.05 1023.04 1021.99 1020.90 1019.82 1018.76 1017.74 1016.78 1015.87 1015.01 1014.18 1013.35 1012.51 1011.66 1010.79 1009.92 1009.09 1008.31 1007.62 1007.05 1006.60 1006.27 1006.06 1005.94 1005.88 1005.87 1005.90 1005.94 1006.02
1033.80 1033.40 1032.95 1032.45 1031.89 1031.26 1030.58 1029.84 1029.07 1028.26 1027.42 1026.54 1025.63 1024.68 1023.69 1022.67 1021.63 1020.58 1019.55 1018.56 1017.61 1016.70 1015.85 1015.02 1014.22 1013.42 1012.62 1011.80 1010.98 1010.17 1009.39 1008.67 1008.02 1007.48 1007.02 1006.67 1006.39 1006.18 1006.02 1005.91 1005.84 1005.82 1005.86
1033.64 1033.22 1032.78 1032.30 1031.76 1031.16 1030.50 1029.77 1028.99 1028.16 1027.28 1026.36 1025.41 1024.42 1023.41 1022.40 1021.38 1020.39 1019.43 1018.52 1017.66 1016.85 1016.07 1015.32 1014.58 1013.84 1013.09 1012.33 1011.56 1010.81 1010.08 1009.41 1008.79 1008.24 1007.76 1007.34 1006.98 1006.66 1006.38 1006.14 1005.97 1005.87 1005.88
1033.46 1033.02 1032.58 1032.11 1031.60 1031.03 1030.40 1029.70 1028.93 1028.10 1027.21 1026.26 1025.28 1024.28 1023.27 1022.27 1021.29 1020.36 1019.49 1018.67 1017.91 1017.20 1016.52 1015.86 1015.20 1014.53 1013.85 1013.15 1012.45 1011.75 1011.08 1010.44 1009.84 1009.28 1008.76 1008.27 1007.80 1007.36 1006.95 1006.59 1006.30 1006.12 1006.09
1033.27 1032.81 1032.36 1031.90 1031.41 1030.88 1030.29 1029.62 1028.88 1028.07 1027.18 1026.25 1025.27 1024.27 1023.28 1022.31 1021.38 1020.52 1019.73 1019.00 1018.34 1017.74 1017.15 1016.58 1016.01 1015.41 1014.80 1014.17 1013.53 1012.89 1012.26 1011.66 1011.07 1010.50 1009.95 1009.39 1008.83 1008.27 1007.73 1007.24 1006.84 1006.57 1006.49
1033.11 1032.62 1032.15 1031.69 1031.22 1030.71 1030.15 1029.53 1028.83 1028.05 1027.21 1026.30 1025.35 1024.39 1023.43 1022.51 1021.65 1020.86 1020.15 1019.52 1018.95 1018.42 1017.93 1017.43 1016.93 1016.40 1015.84 1015.27 1014.69 1014.10 1013.53 1012.96 1012.39 1011.83 1011.24 1010.63 1010.00 1009.34 1008.69 1008.09 1007.58 1007.23 1007.07
1032.99 1032.46 1031.97 1031.50 1031.02 1030.53 1030.01 1029.43 1028.78 1028.06 1027.27 1026.42 1025.53 1024.62 1023.73 1022.87 1022.08 1021.37 1020.74 1020.18 1019.68 1019.23 1018.80 1018.36 1017.91 1017.43 1016.92 1016.40 1015.86 1015.33 1014.80 1014.27 1013.74 1013.18 1012.60 1011.96 1011.27 1010.55 1009.82 1009.13 1008.53 1008.08 1007.84
1032.95 1032.38 1031.85 1031.35 1030.87 1030.39 1029.89 1029.34 1028.75 1028.09 1027.37 1026.59 1025.78 1024.95 1024.14 1023.37 1022.65 1022.02 1021.45 1020.96 1020.53 1020.13 1019.74 1019.34 1018.92 1018.47 1018.00 1017.51 1017.02 1016.53 1016.05 1015.56 1015.07 1014.55 1013.98 1013.35 1012.65 1011.89 1011.11 1010.35 1009.68 1009.15 1008.83
1032.99 1032.38 1031.82 1031.29 1030.79 1030.30 1029.82 1029.31 1028.77 1028.18 1027.53 1026.84 1026.11 1025.37 1024.65 1023.96 1023.33 1022.76 1022.26 1021.83 1021.45 1021.08 1020.73 1020.35 1019.96 1019.53 1019.08 1018.62 1018.16 1017.71 1017.27 1016.84 1016.39 1015.92 1015.39 1014.79 1014.11 1013.35 1012.56 1011.77 1011.05 1010.46 1010.06
1033.12 1032.48 1031.89 1031.33 1030.81 1030.32 1029.84 1029.36 1028.86 1028.33 1027.76 1027.15 1026.51 1025.86 1025.22 1024.62 1024.06 1023.56 1023.12 1022.74 1022.39 1022.06 1021.73 1021.37 1020.99 1020.59 1020.16 1019.72 1019.30 1018.88 1018.48 1018.10 1017.71 1017.30 1016.82 1016.28 1015.65 1014.93 1014.17 1013.38 1012.65 1012.02 1011.57
1033.32 1032.67 1032.05 1031.47 1030.94 1030.44 1029.97 1029.52 1029.06 1028.58 1028.06 1027.52 1026.96 1026.39 1025.82 1025.29 1024.80 1024.36 1023.97 1023.62 1023.31 1023.01 1022.70 1022.38 1022.02 1021.63 1021.23 1020.82 1020.42 1020.04 1019.69 1019.36 1019.02 1018.67 1018.27 1017.80 1017.24 1016.60 1015.89 1015.16 1014.45 1013.82 1013.34
1033.57 1032.92 1032.29 1031.70 1031.16 1030.66 1030.20 1029.77 1029.33 1028.89 1028.43 1027.94 1027.43 1026.92 1026.41 1025.93 1025.48 1025.09 1024.74 1024.44 1024.16 1023.89 1023.61 1023.31 1022.99 1022.64 1022.27 1021.89 1021.53 1021.18 1020.87 1020.58 1020.30 1020.01 1019.69 1019.30 1018.83 1018.29 1017.67 1017.02 1016.38 1015.79 1015.31
1033.82 1033.18 1032.56 1031.98 1031.44 1030.95 1030.50 1030.08 1029.66 1029.25 1028.81 1028.35 1027.88 1027.40 1026.93 1026.48 1026.07 1025.70 1025.39 1025.11 1024.87 1024.64 1024.40 1024.14 1023.86 1023.55 1023.22 1022.89 1022.56 1022.26 1021.98 1021.73 1021.50 1021.27 1021.01 1020.71 1020.34 1019.91 1019.41 1018.87 1018.32 1017.80 1017.37
1034.03 1033.41 1032.81 1032.24 1031.72 1031.24 1030.80 1030.39 1029.99 1029.58 1029.16 1028.72 1028.26 1027.79 1027.33 1026.90 1026.50 1026.15 1025.86 1025.62 1025.40 1025.21 1025.02 1024.82 1024.59 1024.33 1024.06 1023.77 1023.48 1023.21 1022.97 1022.74 1022.55 1022.36 1022.16 1021.94 1021.66 1021.34 1020.97 1020.55 1020.12 1019.71 1019.35
1034.15 1033.56 1032.98 1032.44 1031.94 1031.48 1031.05 1030.65 1030.26 1029.85 1029.43 1028.98 1028.52 1028.05 1027.58 1027.15 1026.76 1026.42 1026.14 1025.92 1025.74 1025.59 1025.45 1025.30 1025.13 1024.93 1024.71 1024.47 1024.22 1023.98 1023.76 1023.56 1023.38 1023.22 1023.07 1022.90 1022.72 1022.49 1022.24 1021.95 1021.65 1021.35 1021.08
1034.16 1033.60 1033.05 1032.54 1032.06 1031.62 1031.21 1030.82 1030.42 1030.01 1029.57 1029.12 1028.64 1028.15 1027.68 1027.24 1026.84 1026.50 1026.24 1026.03 1025.88 1025.77 1025.67 1025.58 1025.46 1025.32 1025.15 1024.96 1024.74 1024.53 1024.32 1024.13 1023.96 1023.82 1023.69 1023.56 1023.44 1023.30 1023.14 1022.97 1022.79 1022.60 1022.44
1034.07 1033.54 1033.02 1032.54 1032.09 1031.67 1031.26 1030.87 1030.46 1030.04 1029.59 1029.11 1028.61 1028.11 1027.62 1027.16 1026.76 1026.42 1026.16 1025.96 1025.83 1025.75 1025.69 1025.63 1025.57 1025.47 1025.35 1025.19 1025.01 1024.82 1024.62 1024.43 1024.26 1024.12 1024.00 1023.90 1023.81 1023.73 1023.65 1023.57 1023.49 1023.41 1023.34
1033.92 1033.41 1032.93 1032.47 1032.04 1031.63 1031.24 1030.83 1030.42 1029.97 1029.50 1028.99 1028.47 1027.95 1027.44 1026.97 1026.55 1026.20 1025.93 1025.74 1025.62 1025.55 1025.51 1025.48 1025.44 1025.38 1025.29 1025.17 1025.01 1024.84 1024.65 1024.47 1024.30 1024.15 1024.03 1023.94 1023.88 1023.84 1023.82 1023.80 1023.79 1023.79 1023.79
1033.76 1033.28 1032.82 1032.39 1031.98 1031.58 1031.17 1030.75 1030.31 1029.84 1029.34 1028.81 1028.26 1027.70 1027.18 1026.68 1026.25 1025.89 1025.60 1025.39 1025.26 1025.18 1025.14 1025.11 1025.08 1025.04 1024.97 1024.87 1024.74 1024.58 1024.42 1024.25 1024.09 1023.95 1023.84 1023.76 1023.71 1023.70 1023.70 1023.73 1023.78 1023.83 1023.89
1033.64 1033.20 1032.77 1032.36 1031.96 1031.55 1031.14 1030.69 1030.22 1029.71 1029.17 1028.60 1028.02 1027.44 1026.88 1026.36 1025.90 1025.50 1025.19 1024.94 1024.77 1024.66 1024.58 1024.54 1024.49 1024.45 1024.38 1024.30 1024.19 1024.06 1023.93 1023.79 1023.66 1023.55 1023.47 1023.41 1023.39 1023.40 1023.43 1023.49 1023.56 1023.65 1023.74
1033.61 1033.21 1032.82 1032.43 1032.04 1031.62 1031.18 1030.71 1030.19 1029.64 1029.05 1028.44 1027.81 1027.19 1026.60 1026.04 1025.53 1025.09 1024.72 1024.42 1024.18 1024.00 1023.87 1023.77 1023.68 1023.61 1023.54 1023.46 1023.38 1023.29 1023.20 1023.12 1023.05 1023.00 1022.97 1022.96 1022.98 1023.02 1023.09 1023.17 1023.26 1023.37 1023.48
1033.68 1033.34 1032.98 1032.62 1032.23 1031.80 1031.33 1030.82 1030.26 1029.65 1029.01 1028.35 1027.68 1027.01 1026.36 1025.75 1025.19 1024.68 1024.23 1023.84 1023.51 1023.24 1023.02 1022.83 1022.68 1022.56 1022.46 1022.38 1022.32 1022.28 1022.26 1022.25 1022.27 1022.30 1022.36 1022.43 1022.51 1022.61 1022.71 1022.82 1022.94 1023.06 1023.18
1033.85 1033.56 1033.25 1032.91 1032.52 1032.08 1031.59 1031.03 1030.42 1029.77 1029.07 1028.35 1027.63 1026.90 1026.20 1025.52 1024.88 1024.29 1023.74 1023.25 1022.81 1022.41 1022.07 1021.78 1021.53 1021.34 1021.20 1021.10 1021.06 1021.07 1021.11 1021.20 1021.32 1021.46 1021.62 1021.79 1021.97 1022.14 1022.30 1022.45 1022.60 1022.73 1022.86
Thickness
5241 5232 5224 5217 5210 5203 5197 5192 5188 5184 5180 5177 5175 5173 5174 5177 5181 5188 5197 5209 5223 5237 5250 5262 5274 5285 5298 5313 5329 5347 5367 5388 5414 5441 5459 5480 5497 5513 5529 5541 5550 5560 5568
5234 5225 5217 5210 5203 5196 5189 5182 5176 5172 5168 5163 5161 5160 5161 5164 5169 5176 5187 5200 5213 5228 5240 5253 5267 5280 5293 5309 5324 5342 5360 5380 5403 5426 5446 5463 5481 5497 5513 5527 5538 5548 5557
5228 5220 5212 5204 5196 5187 5179 5172 5165 5160 5155 5149 5146 5145 5147 5153 5159 5168 5179 5192 5205 5218 5231 5244 5258 5272 5288 5304 5320 5337 5355 5374 5393 5414 5434 5451 5468 5484 5499 5513 5525 5535 5545
5224 5215 5207 5197 5188 5178 5169 5160 5153 5147 5140 5133 5129 5129 5134 5142 5151 5162 5173 5186 5198 5209 5222 5235 5249 5264 5279 5297 5315 5331 5348 5365 5383 5403 5423 5439 5455 5470 5485 5499 5511 5523 5533
5221 5213 5203 5192 5181 5171 5161 5151 5142 5131 5121 5114 5111 5114 5122 5132 5144 5156 5170 5182 5190 5200 5213 5225 5240 5255 5269 5285 5303 5319 5337 5354 5371 5390 5409 5426 5440 5455 5471 5487 5499 5510 5518
5220 5211 5201 5190 5178 5166 5154 5143 5130 5117 5105 5097 5095 5100 5111 5123 5137 5154 5167 5175 5182 5191 5203 5216 5230 5245 5257 5271 5287 5303 5321 5338 5354 5371 5391 5409 5423 5437 5454 5470 5485 5497 5507
5219 5209 5198 5187 5174 5162 5149 5135 5120 5104 5092 5085 5085 5092 5103 5116 5132 5148 5160 5164 5172 5182 5193 5205 5219 5233 5246 5258 5273 5288 5302 5318 5335 5349 5366 5383 5400 5418 5436 5457 5474 5486 5495
5218 5208 5197 5185 5173 5160 5145 5129 5112 5096 5084 5079 5081 5088 5098 5111 5125 5139 5149 5155 5161 5171 5183 5195 5208 5221 5236 5247 5260 5273 5286 5300 5316 5332 5348 5364 5382 5401 5418 5436 5456 5470 5480
5217 5207 5196 5185 5172 5158 5142 5126 5109 5094 5083 5079 5081 5086 5095 5106 5119 5130 5138 5143 5150 5159 5171 5184 5198 5211 5226 5237 5249 5262 5274 5286 5300 5316 5332 5347 5364 5384 5402 5420 5437 5457 5467
5216 5206 5196 5184 5171 5156 5141 5126 5109 5094 5084 5080 5082 5086 5093 5101 5112 5121 5128 5132 5139 5148 5158 5171 5185 5199 5213 5225 5236 5250 5262 5272 5287 5303 5318 5334 5349 5364 5378 5392 5410 5436 5453
5214 5205 5196 5185 5171 5159 5144 5128 5112 5097 5087 5082 5082 5086 5091 5098 5105 5114 5120 5122 5128 5136 5146 5157 5170 5184 5198 5211 5223 5235 5247 5258 5272 5286 5301 5315 5329 5343 5356 5369 5386 5407 5427
5215 5206 5197 5186 5175 5163 5149 5134 5119 5104 5092 5085 5083 5085 5089 5093 5100 5107 5113 5117 5121 5126 5135 5146 5158 5170 5182 5196 5208 5220 5233 5245 5258 5271 5284 5295 5307 5320 5334 5349 5365 5383 5399
5216 5208 5199 5189 5179 5167 5155 5141 5127 5112 5099 5089 5085 5085 5087 5090 5094 5099 5104 5109 5114 5119 5126 5138 5148 5158 5168 5180 5192 5205 5217 5229 5242 5254 5265 5275 5286 5299 5316 5333 5349 5364 5381
5217 5211 5202 5193 5183 5171 5160 5148 5134 5121 5108 5096 5089 5087 5087 5089 5091 5094 5097 5101 5107 5112 5117 5126 5135 5146 5156 5166 5177 5188 5200 5212 5223 5235 5247 5259 5272 5286 5300 5314 5329 5344 5358
5220 5213 5204 5195 5185 5174 5163 5152 5141 5128 5118 5107 5098 5092 5090 5089 5092 5094 5095 5099 5102 5106 5109 5115 5124 5134 5144 5154 5164 5174 5185 5196 5207 5219 5231 5245 5258 5271 5282 5294 5307 5319 5330
5223 5216 5207 5198 5189 5180 5169 5158 5147 5139 5130 5120 5112 5103 5096 5094 5093 5093 5094 5096 5098 5100 5102 5106 5113 5121 5130 5140 5150 5161 5171 5181 5192 5203 5214 5227 5240 5252 5264 5275 5285 5295 5304
5225 5218 5209 5201 5193 5185 5177 5166 5156 5147 5139 5130 5123 5115 5108 5102 5097 5094 5093 5093 5094 5095 5096 5098 5103 5110 5118 5128 5138 5148 5159 5168 5178 5188 5199 5210 5222 5234 5246 5257 5267 5276 5283
5228 5222 5214 5205 5197 5190 5181 5172 5163 5155 5147 5138 5131 5125 5119 5113 5106 5101 5097 5092 5090 5091 5091 5093 5097 5103 5111 5119 5129 5139 5149 5158 5168 5177 5186 5195 5206 5217 5229 5239 5249 5257 5265
5233 5227 5219 5211 5203 5196 5188 5180 5171 5163 5156 5148 5140 5134 5129 5123 5117 5111 5104 5097 5092 5090 5090 5092 5094 5098 5104 5112 5121 5130 5140 5150 5159 5167 5175 5184 5193 5203 5213 5223 5232 5242 5248
5235 5230 5225 5217 5210 5203 5196 5188 5180 5172 5165 5158 5151 5146 5140 5133 5126 5120 5114 5107 5101 5096 5093 5092 5093 5096 5101 5106 5114 5123 5132 5141 5150 5158 5166 5174 5183 5191 5200 5208 5216 5224 5231
5238 5232 5228 5221 5215 5209 5203 5195 5188 5182 5175 5168 5162 5158 5155 5145 5137 5131 5125 5119 5113 5107 5101 5098 5096 5097 5099 5103 5108 5115 5124 5133 5141 5149 5157 5165 5173 5180 5188 5195 5203 5211 5219
5241 5235 5230 5225 5220 5215 5211 5204 5197 5191 5185 5179 5174 5169 5165 5157 5150 5144 5138 5132 5126 5120 5115 5110 5105 5102 5102 5103 5106 5111 5117 5124 5133 5141 5148 5156 5164 5171 5178 5185 5192 5199 5207
5243 5238 5233 5228 5224 5221 5216 5211 5206 5200 5195 5190 5185 5180 5175 5169 5164 5158 5153 5147 5141 5135 5129 5124 5119 5115 5111 5109 5109 5111 5114 5119 5126 5133 5140 5148 5155 5162 5169 5176 5182 5189 5197
5246 5240 5235 5231 5228 5225 5221 5217 5212 5208 5205 5200 5195 5190 5185 5181 5176 5171 5167 5162 5156 5150 5144 5139 5134 5129 5125 5121 5117 5116 5116 5118 5121 5127 5133 5139 5146 5153 5160 5166 5173 5180 5186
5248 5242 5237 5233 5230 5227 5224 5220 5216 5213 5210 5207 5204 5200 5196 5192 5188 5184 5180 5175 5170 5165 5160 5154 5149 5144 5139 5135 5130 5126 5123 5121 5121 5123 5126 5131 5136 5142 5149 5156 5162 5169 5175
5249 5244 5238 5235 5231 5228 5225 5221 5218 5215 5213 5210 5207 5205 5203 5201 5198 5195 5192 5188 5184 5179 5174 5169 5164 5159 5154 5149 5144 5139 5135 5131 5128 5125 5124 5125 5128 5133 5138 5144 5151 5158 5164